EHI
6 7 8 7 5 5 4 2 1 0 0 1 3 5 6 6 6 4 4 4 3 2 2 2 1 1 1 1 1 2 2 1 0 0 0 0 0 1 2 2 1 1 1
7 7 8 7 6 5 4 2 0 1 1 2 3 4 6 6 6 4 3 3 2 1 1 1 1 2 2 1 2 2 1 0 0 0 0 0 0 0 1 1 0 0 1
5 6 7 7 7 6 5 2 1 1 2 3 3 4 5 6 5 4 2 2 1 0 0 0 1 2 2 2 1 1 0 0 0 0 0 0 0 1 2 1 0 0 0
2 4 6 8 6 6 6 4 1 2 3 4 3 3 4 5 5 4 1 0 0 0 0 0 0 1 1 1 0 0 0 0 0 0 0 0 0 1 1 1 0 0 0
0 2 5 7 5 5 6 5 3 3 3 3 3 3 2 3 4 3 1 0 0 0 0 0 0 0 0 0 0 0 0 0 0 0 0 0 0 0 0 0 0 0 0
0 0 2 4 4 4 4 4 4 4 3 2 2 1 1 2 2 2 0 0 0 0 0 0 1 1 0 0 0 0 0 0 0 0 0 0 0 0 0 0 0 0 0
0 0 1 2 3 3 3 3 4 4 3 2 2 2 2 2 2 1 0 0 0 0 0 1 2 2 1 0 0 1 1 1 1 0 0 0 0 1 1 0 0 1 1
0 1 1 1 2 3 4 3 3 3 3 3 3 4 4 4 4 2 1 1 1 1 1 1 3 3 2 1 1 2 3 2 1 0 0 0 1 3 3 1 0 0 0
1 2 2 1 2 3 4 4 4 4 3 3 4 5 6 7 6 4 2 2 2 2 2 3 3 3 2 1 1 3 4 3 1 0 0 1 3 5 4 1 0 0 0
1 1 2 1 1 1 2 4 5 4 4 3 5 7 9 8 7 4 3 3 4 4 3 3 4 5 4 3 3 4 4 3 2 1 1 3 5 6 5 4 2 1 1
2 1 1 1 0 0 0 2 3 3 3 3 4 7 8 6 4 4 3 4 5 6 5 5 6 8 7 6 4 4 2 2 2 1 3 6 8 9 9 8 6 5 4
2 2 1 1 0 0 0 0 1 1 3 3 3 4 3 2 2 2 2 3 5 7 7 7 7 8 8 5 2 1 1 1 1 2 4 8 10 11 13 13 11 9 8
1 2 2 1 1 1 1 1 1 1 2 2 2 1 0 0 1 1 1 1 3 4 5 5 5 5 4 2 0 0 0 1 1 3 6 9 10 11 13 16 15 12 11
0 1 1 1 1 2 2 2 2 1 1 1 2 2 1 0 0 0 0 0 1 1 2 3 2 1 1 0 0 0 1 1 2 4 7 10 11 12 13 15 15 13 13
0 0 0 0 1 1 2 2 2 1 1 1 3 4 4 2 1 1 0 0 0 0 1 2 1 1 0 0 0 0 1 3 4 5 6 10 13 14 13 14 13 11 11
1 1 1 1 1 1 1 1 1 1 1 2 3 5 6 5 4 3 1 1 1 0 1 2 2 2 1 1 1 1 2 4 5 6 6 8 12 13 12 13 12 10 10
3 3 3 2 3 3 3 2 2 2 2 2 2 3 5 6 5 4 3 2 2 1 1 2 2 3 3 2 2 3 3 4 5 6 5 5 6 8 10 13 13 11 9
6 5 4 3 4 5 5 4 3 2 2 2 2 3 4 5 5 5 5 4 3 1 1 2 2 3 3 2 2 2 2 2 2 4 5 4 3 4 6 12 14 12 11
6 5 4 4 6 7 6 5 4 3 2 2 2 3 4 5 6 7 6 5 4 2 1 1 1 2 1 1 1 1 1 1 2 3 5 5 4 4 5 9 12 12 12
4 4 4 5 7 7 7 6 5 4 5 4 3 3 5 6 7 7 6 4 3 2 2 1 1 0 0 1 1 1 2 3 3 3 5 5 5 5 6 7 8 9 10
4 5 6 8 8 7 7 7 6 6 6 5 4 3 4 6 6 6 4 3 2 1 1 1 0 1 1 2 2 2 3 3 3 3 4 4 4 6 7 7 6 6 7
6 6 8 9 9 8 7 7 8 7 5 5 4 4 4 4 5 4 3 2 1 1 1 1 1 2 3 3 3 4 4 3 1 1 2 3 3 4 6 7 5 5 5
7 8 9 10 10 7 6 7 8 8 7 6 6 5 4 4 4 3 3 2 2 2 2 2 3 3 3 3 4 4 4 3 1 1 2 3 3 3 4 4 4 4 4
9 10 11 11 9 7 6 7 8 8 8 8 7 6 5 4 3 4 4 4 3 3 3 3 4 5 4 3 3 4 4 3 2 2 2 3 3 4 3 3 2 3 3
14 14 14 13 11 9 9 9 8 7 7 6 7 6 5 4 4 4 6 7 5 4 3 3 4 5 5 4 3 3 3 3 3 3 3 3 3 3 3 2 3 3 2
19 18 16 15 14 12 10 9 8 6 5 5 6 6 5 4 4 4 6 7 6 4 3 4 4 4 4 4 3 3 3 3 3 3 3 2 1 2 1 2 3 3 3
Wind_Speed
2 4 10 12 13 13 13 13 14 14 15 15 15 15 15 16 16 16 17 17 16 16 15 14 13 13 13 13 14 14 14 14 13 13 13 12 12 12 12 12 10 8 12
6 6 10 12 13 13 13 13 13 14 15 15 15 15 15 16 16 16 16 16 16 15 14 14 13 12 12 12 13 13 13 13 12 12 12 10 10 11 11 11 10 7 11
8 6 9 12 13 13 13 13 13 14 14 15 15 15 15 15 16 16 15 16 15 15 14 13 12 12 12 12 12 12 11 11 11 11 10 5 6 10 11 11 10 10 10
9 7 8 12 13 13 12 12 13 13 14 15 15 15 15 15 15 15 15 15 14 14 13 12 12 12 11 11 11 10 10 10 10 10 5 4 4 9 11 11 10 10 10
7 6 8 13 13 12 12 12 12 14 14 15 15 14 14 15 15 15 15 14 14 13 13 12 11 11 10 10 9 9 9 8 8 6 4 3 3 8 10 10 10 9 9
7 6 8 12 13 13 12 12 13 13 14 14 14 14 14 14 14 14 13 13 12 13 12 11 11 10 9 9 8 7 7 7 6 4 3 4 3 7 10 10 9 9 9
7 5 7 11 12 12 12 12 12 13 14 14 14 14 14 14 14 13 13 12 12 11 11 10 10 9 8 9 8 7 7 6 4 4 3 3 4 8 9 9 9 9 9
8 6 6 11 12 11 11 12 13 13 14 14 14 14 14 13 13 13 12 12 11 10 10 9 9 8 8 7 7 6 6 5 5 5 3 3 6 8 9 9 8 8 8
8 7 5 5 7 10 11 11 12 13 14 13 13 13 13 12 12 12 11 11 10 10 9 9 9 8 7 7 6 6 5 4 4 3 5 3 7 9 9 9 8 8 8
6 6 5 4 4 4 6 10 12 13 13 13 13 13 12 12 11 11 10 10 9 9 9 9 9 8 8 7 7 6 6 5 4 3 3 4 8 10 10 10 9 9 8
7 5 5 5 4 4 4 8 9 11 11 11 10 12 9 4 5 6 8 10 9 9 9 9 8 7 7 7 7 5 4 2 4 3 3 7 9 10 11 10 10 9 9
7 6 5 5 5 4 5 4 3 4 5 5 4 5 4 3 3 5 7 9 9 9 8 8 8 7 4 2 3 3 1 3 3 3 4 10 10 11 11 11 10 10 9
7 7 6 6 5 5 3 3 2 2 3 3 4 4 3 3 2 2 2 3 4 5 4 4 4 2 2 2 2 2 2 2 3 3 5 11 11 11 11 11 11 11 10
8 7 6 5 5 4 4 3 3 2 2 3 3 4 4 2 2 2 2 2 2 2 2 2 2 2 2 3 3 3 3 3 3 3 4 11 11 11 12 11 11 11 11
8 7 6 5 5 4 4 3 4 3 3 3 3 4 4 3 3 2 2 2 2 2 2 2 2 2 3 3 3 3 4 4 4 4 3 10 11 12 12 12 11 11 11
7 7 6 6 5 4 3 3 3 3 3 3 3 4 5 3 3 3 2 2 3 3 3 3 3 3 2 2 3 3 3 4 4 5 4 6 10 11 12 12 11 11 11
7 7 6 6 5 4 4 3 3 3 3 3 3 4 4 4 4 3 3 3 3 3 3 2 2 1 1 2 2 3 2 4 5 5 5 4 5 10 12 12 12 12 11
7 6 6 6 5 4 3 3 2 3 3 3 3 3 4 4 4 3 3 2 3 3 2 2 2 1 1 1 1 2 2 2 4 5 4 5 4 5 7 12 12 11 12
7 6 5 5 5 4 3 2 2 2 2 2 2 2 3 3 4 3 2 2 3 2 2 3 2 2 2 1 2 2 1 2 3 4 5 5 5 4 4 7 10 11 11
7 6 5 4 4 3 3 2 2 2 1 1 2 2 3 3 3 3 2 2 2 2 2 2 2 2 2 2 2 1 1 2 2 3 4 4 4 5 4 5 4 5 9
6 6 5 5 4 3 2 2 2 1 1 1 1 3 3 3 3 3 2 2 2 2 2 2 2 1 1 1 1 1 2 2 2 2 2 2 4 5 4 4 3 3 3
8 7 6 5 4 4 3 2 2 2 1 1 1 1 2 2 3 3 3 2 2 2 1 2 2 1 1 1 2 1 2 3 2 2 2 3 4 3 4 5 4 4 3
8 8 7 6 5 4 3 2 2 2 2 1 1 0 1 2 2 3 3 3 2 2 2 3 3 3 1 1 2 3 2 2 2 2 1 2 2 2 2 3 4 4 4
9 8 7 6 5 4 4 3 4 3 2 2 1 1 1 1 1 2 3 3 3 2 3 3 2 2 2 2 1 1 2 3 1 2 2 2 2 2 2 3 3 3 4
9 8 7 6 5 4 4 4 4 3 2 1 1 1 0 0 1 2 2 2 2 2 2 2 2 2 2 2 2 1 1 0 1 2 2 2 2 2 2 3 2 3 3
9 8 7 7 5 5 4 4 4 4 3 2 1 1 1 1 1 1 2 2 2 2 2 2 2 2 2 2 2 1 1 1 2 2 2 2 2 2 2 2 2 3 3
Wind_Direction
128 138 129 123 121 117 116 116 117 118 118 118 118 119 120 122 124 126 128 127 128 128 127 129 128 129 130 130 130 128 128 127 123 121 119 118 119 118 115 112 111 109 112
148 139 129 128 124 119 118 119 119 121 121 120 120 121 123 125 127 128 129 129 130 130 129 129 129 129 130 129 128 126 127 125 123 123 121 119 119 120 118 117 116 119 118
134 132 130 127 124 120 118 119 121 123 124 123 122 123 125 127 129 131 131 132 133 134 133 131 131 130 130 130 130 128 128 127 126 123 120 115 118 120 122 123 120 122 123
135 135 132 128 124 122 119 119 122 125 126 124 124 124 126 128 130 132 133 134 135 135 134 134 134 134 134 135 134 133 133 133 133 129 119 119 124 126 126 126 126 127 127
132 133 135 130 128 126 123 123 126 127 127 127 127 126 127 129 131 134 136 137 138 138 137 137 138 139 139 137 137 138 139 139 134 124 114 114 117 131 131 133 134 134 133
134 136 136 133 133 131 129 127 127 129 131 131 130 130 130 130 132 136 138 137 141 141 141 140 141 144 146 144 144 146 142 140 127 119 125 130 132 142 142 142 140 139 137
135 139 139 135 135 135 133 130 129 130 133 133 133 135 134 134 136 137 138 136 135 138 141 143 146 150 152 153 153 151 148 147 132 132 140 141 148 150 148 145 144 142 142
141 141 143 142 139 137 138 135 134 135 135 135 135 136 137 137 139 140 140 141 141 141 144 148 154 159 162 165 165 160 161 160 147 150 149 154 157 156 152 150 150 150 149
143 140 140 144 144 144 142 141 140 141 139 139 138 139 140 140 143 145 145 146 144 144 149 156 166 173 175 177 171 170 171 164 149 164 167 167 167 165 162 159 160 162 163
141 140 141 136 136 143 145 147 147 146 145 144 144 145 146 148 150 154 153 154 155 157 160 165 171 177 185 186 185 185 184 168 171 178 170 180 177 176 174 173 172 174 175
136 140 145 143 139 139 143 150 151 151 151 148 147 149 146 141 144 153 160 165 168 169 170 172 174 182 193 196 199 198 190 174 173 177 185 188 186 185 184 182 182 184 184
146 149 148 146 145 143 148 137 141 148 147 144 146 148 137 135 150 156 165 172 174 176 179 182 184 192 196 190 203 203 184 180 175 186 199 195 194 192 190 188 190 191 192
149 150 152 150 150 150 144 140 138 134 141 149 150 145 141 139 146 155 156 172 178 181 181 183 188 192 195 202 209 196 203 195 185 197 201 198 200 197 196 196 197 199 199
136 139 140 144 146 151 145 147 151 150 156 162 163 158 150 149 155 163 163 172 173 175 180 183 185 198 213 216 215 213 210 190 194 195 202 201 201 200 201 200 202 204 205
130 133 138 139 142 137 130 153 154 158 161 164 159 163 159 160 168 175 177 175 177 178 184 183 188 206 220 225 219 211 202 200 192 193 201 201 200 201 201 203 206 209 210
132 137 137 132 133 129 130 131 141 145 146 149 150 161 162 162 163 168 171 173 183 187 188 183 192 198 213 218 225 219 211 197 190 193 198 201 205 205 207 209 210 213 212
134 135 135 133 126 126 126 132 134 140 140 144 151 161 162 160 161 161 163 173 187 182 176 174 194 197 214 222 234 237 218 194 193 196 197 200 206 212 214 215 217 219 219
131 131 138 137 126 126 130 133 136 140 141 149 153 155 160 163 161 154 160 174 174 164 164 170 181 181 221 228 235 245 234 211 202 201 198 201 202 211 220 222 222 223 225
139 136 132 131 136 139 137 130 129 133 139 147 150 157 167 167 160 154 164 171 155 157 171 188 176 178 198 225 242 242 235 223 213 208 204 207 209 210 215 227 227 226 229
142 136 135 133 139 137 121 97 84 89 114 139 151 166 164 160 156 152 158 162 150 152 174 181 177 188 191 202 241 269 259 239 218 214 212 209 210 213 211 220 225 233 233
142 137 140 138 144 132 120 122 117 121 123 125 145 157 162 159 157 153 158 159 155 165 187 181 172 182 209 162 102 333 314 271 233 222 217 211 214 215 208 215 211 214 230
156 152 148 151 154 149 155 155 151 146 153 154 143 129 156 165 174 166 157 160 172 163 171 179 166 157 214 168 145 111 341 338 325 248 219 216 220 212 211 211 206 205 214
163 165 162 164 162 162 150 125 103 77 50 45 44 211 220 192 183 161 155 154 178 177 184 195 181 169 191 230 175 154 159 243 303 314 272 243 227 214 217 208 209 212 211
173 168 163 166 163 164 149 135 140 142 158 203 201 205 246 214 168 151 156 163 167 175 186 204 190 180 170 212 253 205 185 178 181 295 311 292 253 232 221 214 215 215 211
172 170 169 164 162 162 156 156 148 150 170 177 155 150 214 269 172 165 159 157 165 176 193 202 188 187 182 191 210 218 221 210 173 177 269 297 306 274 238 226 215 213 212
172 171 167 163 168 168 161 158 159 161 163 154 170 175 222 244 249 203 163 163 175 186 201 206 202 198 201 200 200 196 186 194 211 192 227 261 278 283 264 246 228 215 211